{"data":{"norad_id":48481,"intl_designator":"2021-040BF","name":"STARLINK-2706","alt_names":[],"object_type":"PAYLOAD","status":"ACTIVE","operator":null,"country":"US","launch_date":"2021-05-09","launch_site_code":"AFETR","launch_vehicle":null,"mission":null,"orbit_class":"UNKNOWN","rcs_meters":null,"size_class":null,"mass_kg":null,"dimensions":null,"purposes":["comms"],"wikipedia_slug":null,"has_3d_model":false,"image_url":null,"decayed_at":null,"tle_current":{"epoch":"2026-09-19T22:47:55.481280Z","epoch_age_seconds":84708,"freshness":"FRESH","line1":"1 48481U 21040BF  26262.94994770 -.00000357  00000+0  25515-6 0  9998","line2":"2 48481  53.1617   9.4442 0001086  61.5714 298.5397 15.31699472296234","mean_motion":15.31699472,"eccentricity":0.0001086,"inclination_deg":53.1617,"raan_deg":9.4442,"arg_perigee_deg":61.5714,"mean_anomaly_deg":298.5397,"bstar":2.5515e-7,"rev_number":29623,"period_min":94.013220368858,"perigee_km":469.99778095401,"apogee_km":471.48535737924,"semimajor_km":6848.8785691666,"source":"CELESTRAK","updated_at":"2026-09-20T09:00:39.130901Z"}}}